Theta_e
339 343 343 343 346 347 350 352 352 351 350 351 351 350 351 350 349 349 349 350 350 348 349 348 348 347 348 348 348 347 347 348 348
344 342 343 344 346 348 347 351 350 351 351 351 352 352 352 351 351 350 351 351 351 351 350 350 350 350 349 348 349 348 348 347 348
342 344 343 343 345 347 347 349 350 351 351 351 351 352 352 352 352 352 352 352 352 353 352 352 352 352 350 348 349 349 348 347 347
334 342 345 345 340 341 344 348 351 350 351 352 352 352 353 353 353 353 352 353 353 354 354 354 354 353 351 338 346 349 349 348 348
336 336 339 345 343 335 337 346 349 344 348 351 352 352 353 354 354 354 354 354 355 356 357 357 357 354 354 352 351 350 350 350 348
336 337 338 341 346 346 338 341 347 345 347 348 351 353 353 354 355 356 357 358 358 357 358 358 357 356 354 354 353 352 352 350 347
334 334 339 338 343 345 343 341 343 342 345 347 351 353 353 354 355 357 358 358 358 355 354 355 355 355 355 354 353 351 349 347 346
333 335 337 337 338 340 347 348 348 348 349 348 350 352 352 354 356 356 355 353 353 353 352 351 351 352 353 352 351 349 347 346 344
332 334 335 339 339 339 340 350 348 348 347 347 349 350 352 353 350 348 350 351 353 352 352 351 351 351 351 351 349 348 348 345 343
335 333 338 336 339 340 340 341 342 343 345 346 349 351 352 350 344 343 346 349 351 353 354 353 351 349 347 348 347 347 345 344 344
336 337 335 338 339 338 336 338 341 345 346 346 349 352 352 351 344 342 345 348 349 353 355 352 350 348 346 347 347 347 347 346 345
335 338 337 339 337 337 337 337 342 344 344 347 350 352 352 353 348 346 349 348 348 352 354 351 349 349 348 348 347 348 348 347 348
333 335 338 338 339 338 339 337 343 343 344 349 350 352 352 353 351 351 351 352 352 353 353 353 352 351 351 349 348 348 348 348 348
341 345 339 337 339 340 336 337 343 346 347 349 349 352 353 354 354 353 354 354 354 354 355 355 355 354 353 353 350 350 351 350 349
347 351 342 341 342 342 340 346 345 346 348 349 353 354 356 357 358 358 358 357 356 355 355 354 354 353 352 352 353 352 350 347 346
349 353 350 350 347 348 348 351 352 347 349 353 357 358 357 358 358 358 359 359 358 356 355 355 353 352 348 348 349 350 350 347 345
345 352 353 353 353 352 353 354 354 355 353 357 355 356 358 360 361 360 360 360 356 355 357 358 356 352 354 352 351 350 350 348 345
344 343 350 352 354 354 357 358 357 356 355 357 359 360 361 361 361 361 360 360 358 353 352 352 352 351 349 349 348 347 349 347 344
341 342 346 349 351 350 349 350 351 349 349 351 349 350 354 359 360 361 358 354 354 355 353 351 347 343 341 340 343 344 343 340 340
338 340 342 344 343 342 340 339 335 335 337 339 346 352 354 358 358 356 355 352 347 342 340 340 340 339 339 339 340 341 342 342 342
Wind_Speed
9 11 19 24 27 21 27 32 32 31 29 27 27 27 28 30 33 30 32 28 26 32 33 30 27 26 26 26 25 28 29 26 26
9 13 19 21 26 26 27 31 29 28 29 29 29 26 27 28 30 30 31 30 27 26 31 31 27 25 23 27 28 26 28 34 26
12 13 19 24 27 28 28 29 26 27 29 29 28 28 29 29 28 27 26 29 28 21 23 28 28 26 22 21 24 24 27 23 20
23 20 22 28 31 29 28 27 26 27 29 31 31 29 29 29 29 29 30 29 27 25 22 20 23 25 20 22 21 23 23 21 18
15 25 27 29 33 31 28 28 25 25 26 29 31 29 28 27 28 28 27 29 28 25 24 23 22 22 21 22 19 21 19 18 16
18 16 19 27 31 35 33 31 28 26 27 26 27 27 23 23 22 20 19 20 20 20 21 21 22 21 19 19 17 17 16 16 16
24 21 16 23 31 36 37 34 29 27 25 24 22 20 17 17 16 15 15 16 17 19 19 19 20 21 19 18 17 17 16 16 16
18 21 27 22 28 34 38 36 29 24 26 23 22 17 15 13 12 14 14 16 16 15 15 15 15 16 18 18 18 18 16 15 15
15 14 21 16 19 26 28 35 30 27 28 25 22 18 16 14 14 15 15 16 16 14 13 13 14 15 17 18 18 17 16 15 15
24 15 17 22 26 25 25 27 25 27 27 24 22 21 20 17 16 16 16 16 16 16 14 15 15 15 16 18 18 17 16 15 15
26 23 19 21 24 22 17 20 22 26 24 22 23 23 23 20 18 17 16 17 16 15 14 15 15 15 16 16 17 17 17 16 16
33 29 24 22 25 26 17 22 23 24 23 24 24 26 25 22 20 19 18 17 17 15 14 14 15 15 17 18 16 17 19 19 19
38 32 25 25 19 27 26 24 20 26 25 24 26 27 25 21 20 19 19 16 15 15 16 14 15 16 17 18 18 17 17 19 21
34 32 22 24 22 26 23 20 21 24 25 27 24 24 21 19 19 17 15 15 15 15 16 17 17 18 19 19 19 20 20 22 23
26 29 21 19 18 20 24 22 23 25 26 27 23 22 19 17 18 15 13 12 12 14 16 18 19 19 21 21 21 22 21 22 22
15 21 20 16 16 15 15 15 21 27 30 30 26 22 20 18 17 15 13 12 11 13 15 16 15 15 19 20 21 24 23 20 21
9 11 14 14 14 15 15 16 19 23 29 31 25 24 23 20 18 16 16 13 10 12 14 14 16 18 20 21 21 23 24 21 19
10 5 6 7 11 14 16 16 17 18 24 23 22 23 20 20 20 20 19 18 15 15 16 17 18 20 20 21 24 22 18 18 19
16 9 10 18 19 24 23 21 19 11 0 7 7 15 18 18 18 16 14 16 15 14 14 14 14 15 14 13 12 12 12 14 15
14 16 13 12 19 18 19 18 19 16 3 13 6 6 9 10 10 10 10 10 9 7 5 4 5 4 4 6 9 12 13 13 15
Wind_Direction
297 216 212 208 216 219 221 223 225 225 228 230 234 239 240 239 240 245 245 247 246 239 242 245 249 249 251 255 251 252 254 250 245
284 238 212 205 211 219 220 220 222 227 230 231 233 236 241 241 243 245 248 248 251 247 242 249 251 257 259 258 259 257 263 263 249
247 237 220 207 209 218 224 223 224 232 236 239 240 241 241 245 247 247 250 248 252 253 250 251 256 262 268 271 265 258 259 264 257
260 222 226 207 204 213 225 229 224 231 238 242 242 244 247 249 253 252 253 253 253 255 259 255 253 250 249 249 259 254 250 250 250
261 241 224 223 213 209 218 232 228 233 239 244 246 246 251 255 255 256 257 258 258 257 256 257 253 251 250 250 242 236 235 241 240
270 228 224 224 221 217 217 226 233 237 244 247 248 247 249 257 257 254 251 250 249 244 242 246 246 252 249 245 239 238 241 240 238
295 272 236 231 225 222 220 223 224 237 247 251 247 241 245 255 254 246 239 234 230 231 240 243 246 245 242 238 235 234 233 235 234
304 271 248 255 245 237 224 221 221 234 244 244 240 233 235 243 237 228 222 222 218 222 229 237 241 242 238 238 236 230 230 229 225
313 295 262 247 250 235 222 223 216 222 234 237 227 216 221 225 219 217 217 215 215 220 227 235 237 234 236 237 234 232 232 230 226
315 294 306 260 247 230 222 214 227 218 228 234 223 217 209 209 213 214 212 213 215 223 231 238 242 239 236 233 233 229 230 232 235
346 324 304 257 229 222 201 226 231 218 219 224 217 214 212 211 212 215 210 213 219 223 232 239 240 240 237 236 234 233 234 235 237
326 326 293 269 255 244 240 222 231 205 212 212 216 214 216 218 215 213 215 217 222 227 234 239 239 242 241 243 240 237 237 235 240
318 326 307 278 279 247 250 246 221 212 208 209 214 215 217 223 225 222 223 229 233 235 238 246 247 248 249 248 247 240 240 241 246
314 324 297 268 269 255 254 251 223 210 202 209 212 213 215 220 225 224 227 234 238 243 243 245 249 252 250 251 247 245 243 242 246
315 311 284 259 259 247 251 255 227 211 203 201 197 201 206 210 216 217 218 224 229 232 239 246 251 253 251 253 255 252 251 255 258
298 292 276 258 239 229 225 231 223 214 196 187 186 193 187 190 198 203 211 223 232 239 242 249 255 260 265 263 263 263 260 260 265
257 257 260 248 236 218 215 213 212 208 194 185 188 191 194 201 214 223 231 229 237 251 257 258 262 265 263 263 265 266 265 261 262
236 172 198 213 199 166 169 173 178 189 204 204 196 196 205 218 221 223 227 231 234 250 262 259 272 274 272 273 276 279 265 250 251
233 165 132 140 146 136 126 133 143 141 161 246 253 248 240 229 232 225 221 241 243 259 263 261 268 277 281 289 291 274 250 247 250
226 233 195 138 128 135 151 126 101 94 245 316 290 279 238 219 199 204 220 229 233 238 253 280 300 319 332 312 276 273 272 268 263